   2.0-m Faulkes Telescope North.
(H06) RAS Observatory, Mayhill  (N32.903325 W105.528700)  US/New
   Mexico.  Observers E. Guido, G. Sostero, V. Gonano, L. Donato.
(I52) Steward Observatory, Mt. Lemmon Station  (N32.442547 W110.788920)
   US/Arizona.  Observers T. A. Pruyne, B. M. Africano, E. J. Christensen, G.
   A. Farneth, D. C. Fuls, A. R. Gibbs, A. D. Grauer, H. Gröller, J. A.
   Johnson, R. A. Kowalski, S. M. Larson, G. J. Leonard, D. Rankin, R. L.
   Seaman, F. C. Shelly. 1.0-m reflector + CCD.
(K38) M57 Observatory, Saltrio  (N45.873785 E8.918240)  Italy.
(K74) Muensterschwarzach Observatory, Schwarzach  (N49.805279 E10.236400)
   Germany.
(L01) Višnjan Observatory, Tičan  (N45.290900 E13.749300)  Croatia.
   Observers K. Korlević, E. Pettarin. Measurer E. Pettarin. 1.0-m f/2.9
   reflector + CCD.
(L06) Sormano 2 Observatory, Bellagio Via Lattea  (N45.970103 E9.254030)
   Italy.
(N51) GROWTH India Telescope, IAO, Hanle  (N32.779244 E78.964610)  India.
(Q11) Shinshiro  (N34.984299 E137.520690)  Japan.
(Q21) Southern Utsunomiya  (N36.507360 E139.853350)  Japan.

Orbital elements:  N00htdm
   Perihelion 2021 Mar 19.868392 +/- 0.093426 TT = 20:50:29 (JD 2459293.368392)
Epoch 2021 Jan 15.0 TT = JDT 2459229.5   Earth MOID: 0.2093   Ur: 0.0788
M 359.85834672 +/- 0.0346193        (J2000 ecliptic)          AutoNEOCP
n   0.00221789 +/- 0.000616092      Peri.  204.49163 +/- 0.0868749
a  58.2338655 +/- 10.7971           Node   307.04843 +/- 0.0178593
e   0.9803129 +/- 0.0036425         Incl.  111.63924 +/- 0.0327459
P 444.39                   H 16.8   G  0.15   U  7.8  
q 1.14645556 +/- 0.000445194    Q 115.321275 +/- 39.5367
From 99 observations 2021 Jan. 3-15; mean residual 0".57
Residuals in arcseconds: 
210103 F51  .08-  .19+    210108 L06  .72+  .26-    210110 N51  .43-  1.1+    
210103 F51  .24-  .01-    210108 L06  1.3+  .66-    210110 N51  .26-  1.3+    
210103 C51  .95-  .10-    210108 L06  1.0+  .57-    210110 N51  .46-  1.6+    
210104 C51  1.3-  1.8+    210108 K38  .51-  .02+    210110 N51  .84-  1.4+    
210104 C51  1.0-  .09-    210108 I52  1.1-  .54-    210111 033  .34-  .22-    
210104 C51  .50+  .82-    210108 I52  .23-  1.2-    210111 033  .09+  .89-    
210104 C51  2.3+  1.8-    210108 I52  .33-  .04+    210111 033  .04-  .36-    
210104 C51  .53+  1.7+    210108 I52  .47+  .07+    210111 033  .20-  .41-    
210104 C51  .39+  1.2-    210108 Q11  .08-  .02+    210111 033  .13-  .57-    
210104 C51  .48-  .80-    210108 Q11  .20-  .07+    210111 K38  .46-  .22+    
210105 I52  .00   1.1-    210108 Q11  .15-  .03+    210111 K38  .03+  .09+    
210105 I52  .50-  .05-    210109 595  .84-  .46+    210111 K38  .38+  .45-    
210105 I52  .15-  .23+    210109 595  .53-  .14+    210112 711  .17+  .27+    
210105 I52  .84-  1.1+    210109 L01  .28-  .08+    210112 711  .08-  .41+    
210106 291  .33+  .13-    210109 L01  .16-  .05+    210112 711  .87+  .43-    
210106 291  .10-  .00     210109 L01  .11-  .22+    210112 711  1.5+  1.1-    
210106 291  .03+  .20-    210109 595  .18-  .20+    210113 033  .22-  .97-    
210106 I52  .04-  .07+    210109 H06  .29+  .18-    210113 033  .47-  .48-    
210106 I52  .03+  .10+    210109 H06  .26+  .14-    210113 033  .29-  .36-    
210106 I52  .10+  .07-    210109 H06  .11+  .00     210113 K74  .05+  .11-    
210106 I52  .29+  .15+    210109 711  .01+  .42+    210113 K74  .00   .15-    
210107 I52  .18+  .26-    210109 711  .19-  .28+    210113 K74  .04+  .06-    
210107 I52  .40+  .31-    210109 711  .97-  .20+    210113 K74  .14-  .03-    
210107 I52  .17-  .20+    210109 711  .47+  .26+    210113 K74  .15-  .20-    
210107 I52  .29+  .78-    210109 I52  .27-  .71-    210113 Q21  .57-  .73+    
210107 F65  .91+  .42+    210109 I52  .23+  .20-    210113 Q21  .72-  .66+    
210107 F65  1.2+  .29+    210110 I52  .42+  .08-    210113 Q11  .19+  .41-    
210107 F65  .51+  .06-    210110 I52  .25-  .48-    210113 Q11  .23+  .26-    
210108 204  .34-  .04-    210110 I52  .04+  .50-    210113 Q11  .36+  .31-    
210108 K38  .04-  .55+    210110 I52  .40+  .05-    210114 Q11  .09+  .11-    
210108 204  .07+  .06-    210110 Q11  .12+  .03-    210114 Q11  .07+  .17-    
210108 204  .16+  .04+    210110 Q11  .23+  .02-    210115 673  .13-  .09+    
210108 K38  .90-  .27+    210110 Q11  .14+  .07-    210115 673  .15+  .04-    

Ephemerides (geocentric):
Date (UTC) HH   RA              Dec         delta   r     elong  mag " sig PA
---- -- -- --  -------------   -----------  ------ ------ -----  --- ---- ---
2021 01 15 17  14 16 55.717   +44 47 30.72  .98233 1.5068 100.1 19.3 .033  51
2021 01 15 18  14 16 51.982   +44 49 11.61  .98117 1.5064 100.1 19.3 .035  51
2021 01 15 19  14 16 48.228   +44 50 52.77  .98001 1.5060 100.2 19.3 .037  52
2021 01 15 20  14 16 44.454   +44 52 34.18  .97885 1.5056 100.2 19.3 .039  52
2021 01 15 21  14 16 40.660   +44 54 15.85  .97769 1.5052 100.2 19.3 .041  52
2021 01 15 22  14 16 36.847   +44 55 57.79  .97654 1.5048 100.3 19.3 .043  53
2021 01 15 23  14 16 33.013   +44 57 39.98  .97538 1.5044 100.3 19.3 .045  53
2021 01 16 00  14 16 29.159   +44 59 22.43  .97422 1.5040 100.4 19.3 .048  53
2021 01 16 01  14 16 25.286   +45 01 05.15  .97306 1.5036 100.4 19.3 .050  53
2021 01 16 02  14 16 21.392   +45 02 48.13  .97190 1.5032 100.5 19.3 .052  53
2021 01 16 03  14 16 17.477   +45 04 31.37  .97074 1.5028 100.5 19.3 .054  53
2021 01 16 04  14 16 13.543   +45 06 14.88  .96958 1.5024 100.6 19.2 .056  54
2021 01 16 05  14 16 09.587   +45 07 58.65  .96843 1.5020 100.6 19.2 .059  54
2021 01 16 06  14 16 05.611   +45 09 42.69  .96727 1.5016 100.6 19.2 .061  54
2021 01 16 07  14 16 01.614   +45 11 27.00  .96611 1.5012 100.7 19.2 .063  54
2021 01 16 08  14 15 57.597   +45 13 11.57  .96495 1.5008 100.7 19.2 .066  54
2021 01 16 09  14 15 53.558   +45 14 56.41  .96380 1.5004 100.8 19.2 .068  54
2021 01 16 10  14 15 49.498   +45 16 41.52  .96264 1.5000 100.8 19.2 .070  54
2021 01 16 11  14 15 45.417   +45 18 26.90  .96148 1.4996 100.9 19.2 .073  54
2021 01 16 12  14 15 41.315   +45 20 12.55  .96033 1.4992 100.9 19.2 .075  54
2021 01 16 13  14 15 37.191   +45 21 58.48  .95917 1.4988 101.0 19.2 .078  54
2021 01 16 14  14 15 33.045   +45 23 44.67  .95801 1.4984 101.0 19.2 .080  54
2021 01 16 15  14 15 28.878   +45 25 31.13  .95686 1.4980 101.0 19.2 .083  54
2021 01 16 16  14 15 24.690   +45 27 17.87  .95570 1.4976 101.1 19.2 .085  54
2021 01 16 17  14 15 20.479   +45 29 04.89  .95455 1.4972 101.1 19.2 .088  54
2021 01 16 18  14 15 16.246   +45 30 52.18  .95339 1.4968 101.2 19.2 .090  54
2021 01 16 19  14 15 11.992   +45 32 39.74  .95224 1.4964 101.2 19.2 .093  54
2021 01 16 20  14 15 07.715   +45 34 27.58  .95108 1.4960 101.3 19.2 .096  54
2021 01 16 21  14 15 03.415   +45 36 15.70  .94993 1.4957 101.3 19.2 .098  54
2021 01 16 22  14 14 59.094   +45 38 04.10  .94877 1.4953 101.4 19.2 .101  54
2021 01 16 23  14 14 54.749   +45 39 52.78  .94762 1.4949 101.4 19.2 .104  54
2021 01 17 00  14 14 50.382   +45 41 41.73  .94647 1.4945 101.5 19.2 .107  54
2021 01 17 01  14 14 45.992   +45 43 30.97  .94531 1.4941 101.5 19.2 .109  54
2021 01 17 02  14 14 41.580   +45 45 20.48  .94416 1.4937 101.5 19.2 .112  54
2021 01 17 03  14 14 37.144   +45 47 10.28  .94301 1.4933 101.6 19.2 .115  54
2021 01 17 04  14 14 32.685   +45 49 00.36  .94185 1.4929 101.6 19.2 .118  54
2021 01 17 05  14 14 28.203   +45 50 50.73  .94070 1.4925 101.7 19.2 .121  54
2021 01 17 06  14 14 23.697   +45 52 41.38  .93955 1.4921 101.7 19.2 .124  54
2021 01 17 07  14 14 19.168   +45 54 32.32  .93840 1.4917 101.8 19.2 .127  54
2021 01 17 08  14 14 14.615   +45 56 23.54  .93725 1.4913 101.8 19.2 .130  54
2021 01 17 09  14 14 10.038   +45 58 15.05  .93610 1.4909 101.9 19.2 .133  54
2021 01 17 10  14 14 05.437   +46 00 06.84  .93494 1.4905 101.9 19.2 .136  54
2021 01 17 11  14 14 00.813   +46 01 58.93  .93379 1.4901 102.0 19.2 .139  54
2021 01 17 12  14 13 56.164   +46 03 51.30  .93264 1.4897 102.0 19.1 .142  54
2021 01 17 13  14 13 51.491   +46 05 43.96  .93149 1.4893 102.0 19.1 .145  54
2021 01 17 14  14 13 46.793   +46 07 36.92  .93034 1.4889 102.1 19.1 .148  54
2021 01 17 15  14 13 42.071   +46 09 30.16  .92919 1.4885 102.1 19.1 .151  54
2021 01 17 16  14 13 37.324   +46 11 23.70  .92804 1.4882 102.2 19.1 .154  54